When you browse on this site, cookies collect data to enhance your experience and personalize the content and advertising you see.
Visit our Privacy Policy to learn more. By continuing to use the site, you agree to this use of cookies and data.
  • In Switzerland
  • List of Countries
  • For 7 days
  • Water Temperature
  • Weather Map
  • Weather Widgets
  • user-avatar
    Login

    Hourly Weather La Massana

    Today, 21 November, Thursday

    Time Temperature Precipitation Wind Pressure Humidity
    00:00 -7°C° 0 mm 2 mps 599 mmHg 85%
    01:00 -6°C° 0 mm 2 mps 599 mmHg 84%
    02:00 -6°C° 0 mm 2 mps 599 mmHg 83%
    03:00 -4°C° 0 mm 1 mps 599 mmHg 82%
    04:00 -4°C° 0 mm 1 mps 599 mmHg 83%
    05:00 -4°C° 0 mm 1 mps 599 mmHg 84%
    06:00 -4°C° 0 mm 1 mps 599 mmHg 83%
    07:00 -2°C° 0 mm 1 mps 600 mmHg 81%
    08:00 -1°C° 0 mm 1 mps 600 mmHg 79%
    09:00 0°C° 0 mm 1 mps 601 mmHg 77%
    10:00 +1°C° 0 mm 1 mps 601 mmHg 76%
    11:00 +2°C° 0 mm 1 mps 601 mmHg 75%
    12:00 +2°C° 0 mm 1 mps 601 mmHg 73%
    13:00 +2°C° 0 mm 1 mps 601 mmHg 75%
    14:00 +2°C° 0 mm 1 mps 601 mmHg 77%
    15:00 +1°C° 0 mm 1 mps 601 mmHg 79%
    16:00 0°C° 0 mm 1 mps 600 mmHg 83%
    17:00 -1°C° 0 mm 1 mps 600 mmHg 88%
    18:00 -3°C° 0 mm 1 mps 599 mmHg 92%
    19:00 -3°C° 0 mm 1 mps 599 mmHg 92%
    20:00 -3°C° 0 mm 1 mps 600 mmHg 92%
    21:00 -5°C° 0 mm 2 mps 600 mmHg 92%
    22:00 -5°C° 0 mm 2 mps 600 mmHg 92%
    23:00 -5°C° 0 mm 2 mps 600 mmHg 92%

    Tomorrow, 22 November, Friday

    Time Temperature Precipitation Wind Pressure Humidity
    00:00 -5°C° 0 mm 2 mps 600 mmHg 91%
    01:00 -5°C° 0 mm 2 mps 599 mmHg 90%
    02:00 -5°C° 0 mm 2 mps 599 mmHg 89%
    03:00 -5°C° 0 mm 2 mps 598 mmHg 88%
    04:00 -5°C° 0 mm 2 mps 598 mmHg 87%
    05:00 -5°C° 0 mm 2 mps 598 mmHg 86%
    06:00 -5°C° 0 mm 2 mps 598 mmHg 86%
    07:00 -4°C° 0.1 mm 2 mps 598 mmHg 86%
    08:00 -4°C° 0.1 mm 3 mps 599 mmHg 87%
    09:00 -2°C° 0.1 mm 3 mps 599 mmHg 87%
    10:00 -1°C° 0.3 mm 3 mps 598 mmHg 88%
    11:00 -2°C° 0.3 mm 4 mps 598 mmHg 89%
    12:00 -1°C° 0.3 mm 4 mps 597 mmHg 90%
    13:00 -2°C° 0.6 mm 4 mps 596 mmHg 92%
    14:00 -2°C° 0.6 mm 4 mps 596 mmHg 93%
    15:00 -2°C° 0.6 mm 4 mps 595 mmHg 95%
    16:00 -2°C° 1.1 mm 4 mps 594 mmHg 96%
    17:00 -1°C° 1.1 mm 4 mps 594 mmHg 96%
    18:00 -1°C° 1.1 mm 4 mps 593 mmHg 97%
    19:00 -1°C° 3.6 mm 4 mps 593 mmHg 97%
    20:00 -1°C° 3.6 mm 4 mps 592 mmHg 97%
    21:00 0°C° 3.6 mm 3 mps 592 mmHg 97%
    22:00 0°C° 3 mm 3 mps 592 mmHg 97%
    23:00 0°C° 3 mm 3 mps 591 mmHg 97%

    Day after tomorrow, 23 November, Saturday

    Time Temperature Precipitation Wind Pressure Humidity
    00:00 0°C° 3 mm 3 mps 591 mmHg 97%
    01:00 +1°C° 0.4 mm 2 mps 590 mmHg 97%
    02:00 -1°C° 0.4 mm 2 mps 590 mmHg 97%
    03:00 -1°C° 0.4 mm 2 mps 590 mmHg 96%
    04:00 -1°C° 0 mm 2 mps 590 mmHg 96%
    05:00 -2°C° 0 mm 2 mps 590 mmHg 96%
    06:00 -2°C° 0 mm 2 mps 590 mmHg 96%
    07:00 0°C° 0 mm 1 mps 591 mmHg 94%
    08:00 +1°C° 0 mm 1 mps 592 mmHg 93%
    09:00 +1°C° 0 mm 1 mps 592 mmHg 91%
    10:00 +2°C° 0.3 mm 1 mps 593 mmHg 91%
    11:00 +2°C° 0.3 mm 1 mps 594 mmHg 91%
    12:00 +2°C° 0.3 mm 2 mps 594 mmHg 91%
    13:00 +1°C° 0.8 mm 2 mps 594 mmHg 91%
    14:00 -1°C° 0.8 mm 2 mps 595 mmHg 92%
    15:00 -1°C° 0.8 mm 3 mps 595 mmHg 92%
    16:00 -2°C° 0.4 mm 3 mps 596 mmHg 93%
    17:00 -4°C° 0.4 mm 3 mps 596 mmHg 93%
    18:00 -5°C° 0.4 mm 3 mps 596 mmHg 93%
    19:00 -5°C° 0.1 mm 3 mps 597 mmHg 93%
    20:00 -5°C° 0.1 mm 3 mps 598 mmHg 94%
    21:00 -5°C° 0.1 mm 3 mps 599 mmHg 94%
    22:00 -5°C° 0.1 mm 3 mps 599 mmHg 94%
    23:00 -5°C° 0.1 mm 3 mps 600 mmHg 94%

    24 November, Sunday

    Time Temperature Precipitation Wind Pressure Humidity
    00:00 -5°C° 0.1 mm 3 mps 600 mmHg 93%
    01:00 -5°C° 0.1 mm 3 mps 601 mmHg 93%
    02:00 -5°C° 0.1 mm 3 mps 601 mmHg 93%
    03:00 -5°C° 0.1 mm 3 mps 601 mmHg 93%
    04:00 -5°C° 0.1 mm 3 mps 602 mmHg 93%
    05:00 -5°C° 0.1 mm 3 mps 602 mmHg 93%
    06:00 -5°C° 0.1 mm 3 mps 603 mmHg 93%
    07:00 -4°C° 0 mm 3 mps 603 mmHg 91%
    08:00 -4°C° 0 mm 3 mps 604 mmHg 89%
    09:00 -2°C° 0 mm 3 mps 605 mmHg 87%
    10:00 -1°C° 0 mm 3 mps 605 mmHg 85%
    11:00 +1°C° 0 mm 2 mps 606 mmHg 82%
    12:00 +1°C° 0 mm 2 mps 606 mmHg 80%
    13:00 +1°C° 0 mm 2 mps 606 mmHg 81%
    14:00 +1°C° 0 mm 2 mps 606 mmHg 82%
    15:00 +1°C° 0 mm 2 mps 606 mmHg 83%
    16:00 -2°C° 0 mm 2 mps 606 mmHg 85%
    17:00 -3°C° 0 mm 2 mps 605 mmHg 87%
    18:00 -5°C° 0 mm 2 mps 605 mmHg 89%
    19:00 -5°C° 0 mm 2 mps 605 mmHg 82%
    20:00 -5°C° 0 mm 2 mps 605 mmHg 75%
    21:00 -3°C° 0 mm 1 mps 605 mmHg 69%
    22:00 -2°C° 0 mm 1 mps 605 mmHg 66%
    23:00 -2°C° 0 mm 1 mps 606 mmHg 63%

    25 November, Monday

    Time Temperature Precipitation Wind Pressure Humidity
    00:00 -2°C° 0 mm 1 mps 606 mmHg 59%
    01:00 -1°C° 0 mm 1 mps 606 mmHg 59%
    02:00 -1°C° 0 mm 1 mps 606 mmHg 58%
    03:00 0°C° 0 mm 1 mps 606 mmHg 57%
    04:00 -2°C° 0 mm 2 mps 606 mmHg 59%
    05:00 -2°C° 0 mm 2 mps 606 mmHg 61%
    06:00 -2°C° 0 mm 2 mps 605 mmHg 63%
    07:00 -1°C° 0 mm 2 mps 606 mmHg 67%
    08:00 +2°C° 0 mm 2 mps 607 mmHg 72%
    09:00 +4°C° 0 mm 1 mps 608 mmHg 77%
    10:00 +5°C° 0 mm 1 mps 609 mmHg 78%
    11:00 +6°C° 0 mm 1 mps 609 mmHg 79%
    12:00 +8°C° 0 mm 1 mps 610 mmHg 80%
    13:00 +7°C° 0 mm 1 mps 609 mmHg 83%
    14:00 +6°C° 0 mm 1 mps 609 mmHg 86%
    15:00 +5°C° 0 mm 1 mps 609 mmHg 89%
    16:00 +5°C° 0 mm 1 mps 609 mmHg 91%
    17:00 +4°C° 0 mm 1 mps 608 mmHg 92%
    18:00 +3°C° 0 mm 1 mps 608 mmHg 94%
    19:00 +2°C° 0 mm 1 mps 608 mmHg 93%
    20:00 +2°C° 0 mm 1 mps 608 mmHg 91%
    21:00 +2°C° 0 mm 1 mps 608 mmHg 90%
    22:00 +1°C° 0 mm 1 mps 608 mmHg 88%
    23:00 +1°C° 0 mm 1 mps 608 mmHg 86%

    26 November, Tuesday

    Time Temperature Precipitation Wind Pressure Humidity
    00:00 +1°C° 0 mm 1 mps 608 mmHg 84%
    01:00 +1°C° 0 mm 1 mps 608 mmHg 82%
    02:00 0°C° 0 mm 1 mps 607 mmHg 80%
    03:00 0°C° 0 mm 1 mps 607 mmHg 78%
    04:00 0°C° 0 mm 1 mps 607 mmHg 79%
    05:00 0°C° 0 mm 1 mps 607 mmHg 79%
    06:00 0°C° 0 mm 1 mps 607 mmHg 79%
    07:00 +1°C° 0 mm 1 mps 608 mmHg 79%
    08:00 +2°C° 0 mm 1 mps 609 mmHg 79%
    09:00 +3°C° 0 mm 0 mps 609 mmHg 79%
    10:00 +5°C° 0 mm 1 mps 609 mmHg 79%
    11:00 +6°C° 0 mm 1 mps 610 mmHg 79%
    12:00 +7°C° 0 mm 1 mps 610 mmHg 80%
    13:00 +6°C° 0 mm 1 mps 609 mmHg 82%
    14:00 +6°C° 0 mm 1 mps 609 mmHg 85%
    15:00 +5°C° 0 mm 1 mps 608 mmHg 87%
    16:00 +4°C° 0 mm 1 mps 608 mmHg 87%
    17:00 +3°C° 0 mm 1 mps 607 mmHg 86%
    18:00 +1°C° 0 mm 2 mps 607 mmHg 86%
    19:00 +1°C° 0 mm 2 mps 607 mmHg 80%
    20:00 +1°C° 0 mm 2 mps 607 mmHg 75%
    21:00 +2°C° 0 mm 2 mps 608 mmHg 70%
    22:00 +2°C° 0 mm 2 mps 607 mmHg 72%
    23:00 +3°C° 0 mm 1 mps 607 mmHg 73%
    Show more